Tracking 17780 objects as of 28-July-2016
HD Live streaming from Space Station
objects crossing your sky now

NAVSTAR 19 (USA 54)

Track NAVSTAR 19 (USA 54) now!
NAVSTAR 19 (USA 54) is classified as:


NORAD ID: 20533
Int'l Code: 1990-025A
Perigee: 20,954.5 km
Apogee: 21,175.5 km
Inclination: 55.5 °
Period: 753.8 minutes
Semi major axis: 27436 km
RCS: 0.6015 m2 (medium)
Launch date: March 26, 1990
Source: United States (US)
Launch site: AIR FORCE EASTERN TEST RANGE (AFETR)
PRN:
Your satellite tracking list
Your tracking list is empty





NASA's NSSDC Master Catalog

Two Line Element Set (TLE):
1 20533U 90025A   16210.53185633 -.00000062  00000-0  00000+0 0  9991
2 20533  55.5428  17.4897 0040275 149.6145 169.8210  1.91038424186103
Source of the keplerian elements: AFSPC

N2YO: 1185